When you browse on this site, cookies collect data to enhance your experience and personalize the content and advertising you see.
Visit our Privacy Policy to learn more. By continuing to use the site, you agree to this use of cookies and data.
  • En España
  • Lista de países
  • Para 7 días
  • Temperatura del agua
  • Mapa Satelital
  • El tiempo en el mapa
  • Informadores
  • user-avatar
    Iniciar sesión

    Tiempo cada hora Cacalosúchil

    Hoy, 23 Mayo, Jueves

    Tiempo Temperatura Precipitaciones Viento Presión Humedad
    00:00 +22°C° 0 mm 0 mps 628 mmHg 50%
    01:00 +22°C° 0 mm 0 mps 628 mmHg 52%
    02:00 +21°C° 0 mm 0 mps 628 mmHg 53%
    03:00 +21°C° 0 mm 0 mps 627 mmHg 55%
    04:00 +20°C° 0 mm 0 mps 627 mmHg 57%
    05:00 +20°C° 0 mm 0 mps 627 mmHg 60%
    06:00 +24°C° 0 mm 1 mps 628 mmHg 55%
    07:00 +25°C° 0 mm 1 mps 629 mmHg 50%
    08:00 +27°C° 0 mm 1 mps 629 mmHg 46%
    09:00 +29°C° 0 mm 1 mps 630 mmHg 42%
    10:00 +30°C° 0 mm 2 mps 630 mmHg 38%
    11:00 +31°C° 0 mm 2 mps 630 mmHg 35%
    12:00 +32°C° 0.2 mm 2 mps 629 mmHg 33%
    13:00 +32°C° 0.2 mm 2 mps 629 mmHg 32%
    14:00 +34°C° 0.2 mm 2 mps 629 mmHg 31%
    15:00 +32°C° 0.2 mm 2 mps 628 mmHg 33%
    16:00 +31°C° 0.2 mm 2 mps 628 mmHg 35%
    17:00 +30°C° 0.2 mm 2 mps 628 mmHg 36%
    18:00 +29°C° 0.3 mm 2 mps 628 mmHg 40%
    19:00 +28°C° 0.3 mm 2 mps 628 mmHg 43%
    20:00 +27°C° 0.3 mm 2 mps 629 mmHg 47%
    21:00 +26°C° 0.3 mm 2 mps 629 mmHg 50%
    22:00 +26°C° 0.3 mm 1 mps 629 mmHg 53%
    23:00 +25°C° 0.3 mm 1 mps 629 mmHg 56%

    Mañana, 24 Mayo, Viernes

    Tiempo Temperatura Precipitaciones Viento Presión Humedad
    00:00 +24°C° 0.1 mm 1 mps 629 mmHg 58%
    01:00 +24°C° 0.1 mm 1 mps 628 mmHg 61%
    02:00 +23°C° 0.1 mm 1 mps 628 mmHg 64%
    03:00 +23°C° 0.1 mm 1 mps 628 mmHg 65%
    04:00 +22°C° 0.1 mm 1 mps 628 mmHg 66%
    05:00 +22°C° 0.1 mm 1 mps 628 mmHg 67%
    06:00 +23°C° 0 mm 1 mps 628 mmHg 60%
    07:00 +25°C° 0 mm 1 mps 629 mmHg 53%
    08:00 +27°C° 0 mm 2 mps 630 mmHg 46%
    09:00 +28°C° 0 mm 2 mps 630 mmHg 42%
    10:00 +29°C° 0 mm 2 mps 630 mmHg 39%
    11:00 +31°C° 0 mm 2 mps 630 mmHg 36%
    12:00 +31°C° 0.1 mm 2 mps 630 mmHg 34%
    13:00 +32°C° 0.1 mm 1 mps 630 mmHg 33%
    14:00 +33°C° 0.1 mm 1 mps 629 mmHg 31%
    15:00 +31°C° 0.2 mm 1 mps 629 mmHg 34%
    16:00 +30°C° 0.2 mm 1 mps 628 mmHg 37%
    17:00 +29°C° 0.2 mm 1 mps 628 mmHg 39%
    18:00 +28°C° 0.3 mm 1 mps 628 mmHg 42%
    19:00 +27°C° 0.3 mm 2 mps 629 mmHg 46%
    20:00 +27°C° 0.3 mm 2 mps 629 mmHg 49%
    21:00 +26°C° 0.2 mm 2 mps 629 mmHg 52%
    22:00 +25°C° 0.2 mm 1 mps 629 mmHg 55%
    23:00 +24°C° 0.2 mm 1 mps 629 mmHg 58%

    Pasado mañana, 25 Mayo, Sábado

    Tiempo Temperatura Precipitaciones Viento Presión Humedad
    00:00 +24°C° 0.1 mm 1 mps 629 mmHg 59%
    01:00 +24°C° 0.1 mm 1 mps 629 mmHg 60%
    02:00 +21°C° 0.1 mm 0 mps 628 mmHg 60%
    03:00 +21°C° 0 mm 0 mps 628 mmHg 62%
    04:00 +20°C° 0 mm 0 mps 628 mmHg 63%
    05:00 +20°C° 0 mm 0 mps 628 mmHg 64%
    06:00 +21°C° 0 mm 0 mps 629 mmHg 58%
    07:00 +25°C° 0 mm 1 mps 630 mmHg 51%
    08:00 +27°C° 0 mm 1 mps 631 mmHg 45%
    09:00 +28°C° 0 mm 1 mps 631 mmHg 41%
    10:00 +30°C° 0 mm 1 mps 631 mmHg 37%
    11:00 +31°C° 0 mm 1 mps 631 mmHg 33%
    12:00 +32°C° 0.1 mm 1 mps 630 mmHg 31%
    13:00 +32°C° 0.1 mm 2 mps 630 mmHg 29%
    14:00 +34°C° 0.1 mm 2 mps 629 mmHg 27%
    15:00 +32°C° 0 mm 2 mps 629 mmHg 28%
    16:00 +31°C° 0 mm 2 mps 629 mmHg 29%
    17:00 +30°C° 0 mm 2 mps 629 mmHg 30%
    18:00 +29°C° 0 mm 2 mps 629 mmHg 36%
    19:00 +27°C° 0 mm 2 mps 629 mmHg 41%
    20:00 +26°C° 0 mm 2 mps 629 mmHg 47%
    21:00 +25°C° 0 mm 2 mps 629 mmHg 51%
    22:00 +24°C° 0 mm 2 mps 629 mmHg 54%
    23:00 +24°C° 0 mm 1 mps 629 mmHg 57%

    26 Mayo, Domingo

    Tiempo Temperatura Precipitaciones Viento Presión Humedad
    00:00 +23°C° 0.1 mm 1 mps 629 mmHg 60%
    01:00 +23°C° 0.1 mm 1 mps 629 mmHg 62%
    02:00 +22°C° 0.1 mm 1 mps 628 mmHg 64%
    03:00 +22°C° 0 mm 1 mps 628 mmHg 65%
    04:00 +21°C° 0 mm 1 mps 628 mmHg 66%
    05:00 +21°C° 0 mm 1 mps 628 mmHg 67%
    06:00 +23°C° 0 mm 1 mps 629 mmHg 60%
    07:00 +25°C° 0 mm 1 mps 630 mmHg 54%
    08:00 +27°C° 0 mm 1 mps 631 mmHg 47%
    09:00 +29°C° 0 mm 1 mps 631 mmHg 42%
    10:00 +30°C° 0 mm 1 mps 631 mmHg 37%
    11:00 +32°C° 0 mm 1 mps 631 mmHg 33%
    12:00 +33°C° 0 mm 1 mps 631 mmHg 31%
    13:00 +33°C° 0 mm 1 mps 630 mmHg 29%
    14:00 +34°C° 0 mm 2 mps 630 mmHg 27%
    15:00 +32°C° 0 mm 2 mps 630 mmHg 28%
    16:00 +32°C° 0 mm 2 mps 629 mmHg 28%
    17:00 +31°C° 0 mm 2 mps 629 mmHg 29%
    18:00 +29°C° 0 mm 2 mps 629 mmHg 33%
    19:00 +28°C° 0 mm 3 mps 629 mmHg 38%
    20:00 +26°C° 0 mm 3 mps 630 mmHg 42%
    21:00 +25°C° 0 mm 2 mps 630 mmHg 46%
    22:00 +24°C° 0 mm 2 mps 629 mmHg 50%
    23:00 +24°C° 0 mm 1 mps 629 mmHg 55%

    27 Mayo, Lunes

    Tiempo Temperatura Precipitaciones Viento Presión Humedad
    00:00 +23°C° 0 mm 1 mps 629 mmHg 57%
    01:00 +22°C° 0 mm 1 mps 628 mmHg 60%
    02:00 +20°C° 0 mm 0 mps 628 mmHg 62%
    03:00 +19°C° 0 mm 0 mps 628 mmHg 64%
    04:00 +19°C° 0 mm 0 mps 628 mmHg 66%
    05:00 +21°C° 0 mm 1 mps 628 mmHg 67%
    06:00 +23°C° 0 mm 1 mps 629 mmHg 59%
    07:00 +25°C° 0 mm 1 mps 629 mmHg 52%
    08:00 +27°C° 0 mm 1 mps 630 mmHg 44%
    09:00 +29°C° 0 mm 1 mps 630 mmHg 39%
    10:00 +30°C° 0 mm 1 mps 630 mmHg 34%
    11:00 +32°C° 0 mm 2 mps 630 mmHg 29%
    12:00 +34°C° 0 mm 2 mps 630 mmHg 28%
    13:00 +34°C° 0 mm 2 mps 629 mmHg 27%
    14:00 +34°C° 0 mm 2 mps 629 mmHg 25%
    15:00 +32°C° 0 mm 2 mps 628 mmHg 27%
    16:00 +32°C° 0 mm 2 mps 628 mmHg 28%
    17:00 +31°C° 0 mm 2 mps 628 mmHg 29%
    18:00 +29°C° 0 mm 2 mps 628 mmHg 32%
    19:00 +28°C° 0 mm 2 mps 628 mmHg 36%
    20:00 +27°C° 0 mm 2 mps 629 mmHg 39%
    21:00 +26°C° 0 mm 1 mps 629 mmHg 42%
    22:00 +26°C° 0 mm 1 mps 628 mmHg 45%
    23:00 +25°C° 0 mm 1 mps 628 mmHg 47%

    28 Mayo, Martes

    Tiempo Temperatura Precipitaciones Viento Presión Humedad
    00:00 +24°C° 0 mm 1 mps 628 mmHg 51%
    01:00 +23°C° 0 mm 1 mps 627 mmHg 55%
    02:00 +22°C° 0 mm 1 mps 626 mmHg 58%
    03:00 +22°C° 0 mm 1 mps 626 mmHg 60%
    04:00 +21°C° 0 mm 1 mps 626 mmHg 61%
    05:00 +19°C° 0 mm 0 mps 626 mmHg 63%
    06:00 +23°C° 0 mm 1 mps 627 mmHg 57%
    07:00 +25°C° 0 mm 1 mps 628 mmHg 51%
    08:00 +27°C° 0 mm 1 mps 628 mmHg 45%
    09:00 +28°C° 0 mm 1 mps 628 mmHg 41%
    10:00 +30°C° 0 mm 2 mps 628 mmHg 37%
    11:00 +31°C° 0 mm 2 mps 628 mmHg 34%
    12:00 +32°C° 0 mm 2 mps 627 mmHg 32%
    13:00 +32°C° 0 mm 2 mps 627 mmHg 31%
    14:00 +34°C° 0 mm 2 mps 626 mmHg 30%
    15:00 +32°C° 0 mm 2 mps 626 mmHg 31%
    16:00 +31°C° 0 mm 2 mps 626 mmHg 33%
    17:00 +31°C° 0 mm 2 mps 626 mmHg 35%
    18:00 +29°C° 0.2 mm 2 mps 626 mmHg 41%
    19:00 +28°C° 0.2 mm 1 mps 626 mmHg 47%
    20:00 +26°C° 0.2 mm 1 mps 626 mmHg 52%
    21:00 +26°C° 0.4 mm 1 mps 626 mmHg 54%
    22:00 +25°C° 0.4 mm 1 mps 626 mmHg 55%
    23:00 +24°C° 0.4 mm 1 mps 626 mmHg 56%
    Mostrar más